This demonstration page uses our WeatherBlox Daily Observations layout. Learn more.

Left ArrowRight Arrow

38.20091, -84.87328

Hourly Observations for August 10, 2016

Temp ( °F °C ) Dew Point ( °F °C ) Humidity (%) Winds ( mph kmh ) Pressure ( in mb ) Visibility ( mi km ) Precip ( " mm )
12:53 am 00:53 Clear 77 25 73 22.8 88 88 Calm 30.01 1016 10 16 0.00 0.00
1:53 am 01:53 Cloudy 76 24.4 73 22.8 91 91 Calm 30.02 1017 10 16 0.00 0.00
2:53 am 02:53 Cloudy 76 24.4 73 22.8 91 91 Calm 30.02 1017 10 16 0.00 0.00
3:53 am 03:53 Clear 76 24.4 72 22.2 88 88 Calm 30.02 1017 10 16 0.00 0.00
4:53 am 04:53 Clear 75 23.9 72 22.2 90 90 Calm 30.02 1017 10 16 0.00 0.00
5:53 am 05:53 Clear 74 23.3 71 21.7 91 91 Calm 30.03 1017 10 16 0.00 0.00
6:53 am 06:53 Sunny 75 23.9 71 21.7 88 88 S 3 6 30.05 1018 10 16 0.00 0.00
7:53 am 07:53 Sunny 77 25 71 21.7 82 82 S 5 7 30.07 1018 10 16 0.00 0.00
8:53 am 08:53 Sunny 81 27.2 71 21.7 72 72 S 9 15 30.09 1019 10 16 0.00 0.00
9:53 am 09:53 Partly Cloudy 83 28.3 72 22.2 70 70 SW 10 17 30.09 1019 10 16 0.00 0.00
10:53 am 10:53 Cloudy 83 28.3 72 22.2 70 70 SW 10 17 30.11 1020 10 16 0.00 0.00
11:53 am 11:53 Mostly Cloudy 86 30 74 23.3 67 67 S 6 9 30.12 1020 10 16 0.00 0.00
12:53 pm 12:53 Partly Cloudy 87 30.6 73 22.8 63 63 SSW 7 11 30.11 1020 10 16 0.00 0.00
1:53 pm 13:53 Mostly Sunny 89 31.7 72 22.2 57 57 S 10 17 30.09 1019 10 16 0.00 0.00
2:53 pm 14:53 Mostly Sunny 87 30.6 72 22.2 61 61 S 12 19 30.08 1019 10 16 0.00 0.00
3:53 pm 15:53 Mostly Cloudy 87 30.6 74 23.3 65 65 ESE 6 9 30.07 1018 10 16 0.00 0.03
4:53 pm 16:53 Mostly Cloudy 90 32.2 75 23.9 62 62 SE 7 11 30.06 1018 10 16 0.00 0.00
5:53 pm 17:53 Partly Cloudy 89 31.7 72 22.2 57 57 SW 5 7 30.04 1017 10 16 0.00 0.00
6:53 pm 18:53 Sunny 89 31.7 72 22.2 57 57 SSE 8 13 30.04 1017 10 16 0.00 0.00
7:53 pm 19:53 Sunny 87 30.6 71 21.7 59 59 SE 6 9 30.03 1017 10 16 0.00 0.00
8:53 pm 20:53 Clear 84 28.9 72 22.2 67 67 ESE 5 7 30.03 1017 10 16 0.00 0.00
9:53 pm 21:53 Clear 83 28.3 72 22.2 70 70 SE 3 6 30.04 1017 10 16 0.00 0.00
10:53 pm 22:53 Clear 80 26.7 72 22.2 76 76 Calm 30.06 1018 10 16 0.00 0.00
11:53 pm 23:53 Clear 78 25.6 72 22.2 82 82 Calm 30.06 1018 10 16 0.00 0.00

Powered by AerisWeather